CW7056 Olongapo City PH current weather conditions

sailwx.info

Wind from 038 at 2 knots gusting 9

Air temperature 26.7° C
Dewpoint 19.8° C

Last reported at 2014-Dec-22 13:49 UTC.
Time now 2014-Dec-22 14:55 UTC

Location: N 14°51' E 120°16'.
View on Google Maps.

See reports from other nearby stations

  
Tides and Currents Weather Stations Pressure Air Temp Water Temp Dewpoint Dewpoint Depression Visibility Wind Speed Wind Dir Waves Ship Positions
date/time (UTC)wind fromknots sea level pressurealtimeterstation pressurevisibilityair tempwater tempwave heightnotes
2014-Dec-22 13:49 038 2 gusting 9 26.7
2014-Dec-22 13:39 017 5 gusting 9 26.7
2014-Dec-22 13:29 033 2 gusting 15 26.7
2014-Dec-22 13:19 037 5 gusting 15 27.2
2014-Dec-22 13:07 023 6 gusting 15 27.2
2014-Dec-22 12:56 013 6 gusting 14 27.2
2014-Dec-22 12:46 050 4 gusting 14 27.2
2014-Dec-22 12:36 022 6 gusting 17 27.2
2014-Dec-22 12:25 010 4 gusting 17 27.2
2014-Dec-22 12:15 009 2 gusting 10 27.2
2014-Dec-22 12:05 006 2 gusting 11 27.2
2014-Dec-22 11:55 049 4 gusting 11 27.2
2014-Dec-22 11:44 069 1 gusting 6 27.2
2014-Dec-22 11:33 031 2 gusting 8 27.2
2014-Dec-22 11:23 027 1 gusting 8 27.2
2014-Dec-22 11:13 004 3 gusting 6 27.2
2014-Dec-22 11:02 011 3 gusting 6 27.2
2014-Dec-22 10:52 021 1 gusting 6 27.2
2014-Dec-22 10:42 048 2 gusting 6 27.2
2014-Dec-22 10:32 030 2 gusting 6 27.8
2014-Dec-22 10:21 017 2 gusting 8 27.8
2014-Dec-22 09:59 092 1 gusting 6 27.8
2014-Dec-22 09:49 044 1 gusting 6 28.3
2014-Dec-22 09:39 061 1 gusting 6 28.3
2014-Dec-22 09:29 025 1 gusting 6 28.3
2014-Dec-22 09:18 017 2 gusting 6 28.3
2014-Dec-22 09:07 051 2 gusting 7 28.9
2014-Dec-22 08:57 014 4 gusting 11 28.9
2014-Dec-22 08:47 014 4 gusting 11 28.9
2014-Dec-22 08:37 029 4 gusting 9 28.9
2014-Dec-22 08:27 081 3 gusting 8 28.9
2014-Dec-22 08:16 050 6 gusting 10 29.4
2014-Dec-22 08:06 019 5 gusting 10 29.4
2014-Dec-22 07:56 028 2 gusting 10 29.4
2014-Dec-22 07:46 055 2 gusting 10 29.4
2014-Dec-22 07:36 048 4 gusting 9 29.4
2014-Dec-22 07:26 011 1 gusting 9 29.4
2014-Dec-22 07:16 051 3 gusting 9 29.4
2014-Dec-22 07:06 002 4 gusting 10 30.0
2014-Dec-22 06:56 021 4 gusting 12 30.0
2014-Dec-22 06:46 019 4 gusting 12 30.6
2014-Dec-22 06:36 034 3 gusting 11 30.6
2014-Dec-22 06:16 058 3 gusting 9 31.1
2014-Dec-22 06:04 028 2 gusting 9 31.1
2014-Dec-22 05:54 011 3 gusting 8 31.1
2014-Dec-22 05:44 354 3 gusting 8 31.1
2014-Dec-22 05:34 008 1 gusting 6 31.7
2014-Dec-22 05:22 028 3 gusting 12 31.7
2014-Dec-22 05:12 052 3 gusting 12 30.6
2014-Dec-22 05:02 024 1 gusting 11 30.6
2014-Dec-22 04:52 016 3 gusting 9 30.6
2014-Dec-22 04:42 359 1 gusting 8 31.7
2014-Dec-22 04:32 055 2 gusting 9 31.7
2014-Dec-22 04:20 346 2 gusting 13 31.1
2014-Dec-22 04:08 065 5 gusting 13 31.7
2014-Dec-22 03:58 063 5 gusting 13 30.6
2014-Dec-22 03:48 033 3 gusting 8 30.6
2014-Dec-22 03:38 046 1 gusting 8 29.4
2014-Dec-22 03:28 047 2 gusting 8 29.4
2014-Dec-22 03:18 031 4 gusting 13 30.0
2014-Dec-22 03:07 327 3 gusting 13 30.0
2014-Dec-22 02:57 026 2 gusting 10 30.6
2014-Dec-22 02:47 023 3 gusting 8 31.1
2014-Dec-22 02:27 069 3 gusting 9 30.0
2014-Dec-22 02:16 079 4 gusting 10 30.0
2014-Dec-22 02:06 061 4 gusting 10 30.0
2014-Dec-22 01:56 040 4 gusting 12 29.4
2014-Dec-22 01:46 093 4 gusting 9 29.4
2014-Dec-22 01:35 020 2 gusting 13 29.4
2014-Dec-22 01:25 083 2 gusting 13 30.0
2014-Dec-22 01:15 050 2 gusting 11 29.4
2014-Dec-22 01:04 037 3 gusting 10 29.4
2014-Dec-22 00:54 071 3 gusting 10 28.9
2014-Dec-22 00:44 352 2 gusting 9 28.9
2014-Dec-22 00:21 040 2 gusting 8 28.3
2014-Dec-22 00:11 015 3 gusting 8 28.3
2014-Dec-22 00:01 009 1 gusting 6 28.3
2014-Dec-21 23:51 050 3 gusting 7 27.8
2014-Dec-21 23:41 359 3 gusting 6 27.2
2014-Dec-21 23:31 039 0 gusting 4 26.7
2014-Dec-21 23:21 015 0 gusting 7 26.1
2014-Dec-21 23:09 035 2 gusting 7 25.6
2014-Dec-21 22:59 055 1 gusting 5 25.0
2014-Dec-21 22:49 050 1 gusting 3 24.4
2014-Dec-21 22:39 348 0 gusting 0 24.4
2014-Dec-21 22:29 348 24.4
2014-Dec-21 22:09 348 0 gusting 0 25.0
2014-Dec-21 21:59 348 25.0
2014-Dec-21 21:49 348 25.0
2014-Dec-21 21:39 349 24.4
2014-Dec-21 21:29 349 1 gusting 5 24.4
2014-Dec-21 21:19 059 1 gusting 2 24.4
2014-Dec-21 21:08 042 24.4
2014-Dec-21 20:58 052 1 gusting 6 24.4
2014-Dec-21 20:47 325 24.4
2014-Dec-21 20:37 325 0 gusting 1 24.4
2014-Dec-21 20:27 319 0 gusting 1 24.4
2014-Dec-21 20:17 316 24.4
2014-Dec-21 20:07 313 25.0
2014-Dec-21 19:57 313 25.0
2014-Dec-21 19:44 313 25.0
2014-Dec-21 19:34 313 25.0
2014-Dec-21 19:24 059 25.0
2014-Dec-21 19:14 059 0 gusting 0 25.0
2014-Dec-21 19:04 059 24.4
2014-Dec-21 18:54 059 24.4
2014-Dec-21 18:44 059 24.4
2014-Dec-21 18:34 059 0 gusting 1 24.4
2014-Dec-21 18:24 085 0 gusting 2 24.4
2014-Dec-21 18:13 049 0 gusting 2 25.0
2014-Dec-21 18:03 049 25.0
2014-Dec-21 17:53 049 0 gusting 3 25.0
2014-Dec-21 17:43 051 1 gusting 3 25.0
2014-Dec-21 17:33 069 25.0
2014-Dec-21 17:23 069 25.0
2014-Dec-21 17:13 071 25.0
2014-Dec-21 17:03 076 0 gusting 2 25.6
2014-Dec-21 16:52 076 25.6
2014-Dec-21 16:42 076 0 gusting 1 25.6
2014-Dec-21 16:31 076 0 gusting 1 25.6
2014-Dec-21 16:21 076 26.1
2014-Dec-21 16:11 076 26.1
2014-Dec-21 16:01 076 26.1
2014-Dec-21 15:51 076 26.1
2014-Dec-21 15:41 076 0 gusting 1 26.1
2014-Dec-21 15:31 076 26.1
2014-Dec-21 15:21 076 1 gusting 3 26.7
2014-Dec-21 15:10 130 26.7
2014-Dec-21 15:00 130 26.7
2014-Dec-21 14:49 130 26.7
2014-Dec-21 14:29 128 0 gusting 4 27.2
2014-Dec-21 14:18 127 2 gusting 5 27.2
2014-Dec-21 14:08 069 1 gusting 6 27.2
2014-Dec-21 13:58 105 1 gusting 4 27.2
2014-Dec-21 13:48 072 2 gusting 5 27.2
2014-Dec-21 13:37 071 0 gusting 3 27.2
2014-Dec-21 13:27 046 1 gusting 3 27.2
2014-Dec-21 13:17 082 1 gusting 2 27.2
2014-Dec-21 13:07 042 0 gusting 0 27.8
2014-Dec-21 12:57 042 0 gusting 0 27.8
2014-Dec-21 12:46 042 0 gusting 1 27.8
2014-Dec-21 12:36 042 0 gusting 1 27.8
2014-Dec-21 12:26 042 27.8
2014-Dec-21 12:15 042 27.8
2014-Dec-21 12:05 053 0 gusting 2 27.8
2014-Dec-21 11:55 050 27.8
2014-Dec-21 11:45 050 27.8
2014-Dec-21 11:35 052 1 gusting 3 27.8
2014-Dec-21 11:25 014 1 gusting 2 28.3
2014-Dec-21 11:14 014 28.3
2014-Dec-21 11:03 014 0 gusting 1 28.3
2014-Dec-21 10:53 014 0 gusting 1 28.3
2014-Dec-21 10:42 014 28.3
2014-Dec-21 10:32 013 0 gusting 1 28.3
2014-Dec-21 10:22 015 28.9
2014-Dec-21 10:11 013 28.9
2014-Dec-21 10:01 013 28.9
2014-Dec-21 09:50 013 28.9
2014-Dec-21 09:40 005 0 gusting 2 28.9
2014-Dec-21 09:29 349 0 gusting 1 28.9
2014-Dec-21 09:19 349 0 gusting 4 28.9
2014-Dec-21 09:09 031 0 gusting 2 28.9
2014-Dec-21 08:58 031 28.9
2014-Dec-21 08:48 032 2 gusting 3 28.9
2014-Dec-21 08:37 030 29.4
2014-Dec-21 08:27 029 2 gusting 3 29.4
2014-Dec-21 08:16 017 1 gusting 3 29.4
2014-Dec-21 08:06 005 1 gusting 3 30.0
2014-Dec-21 07:56 060 1 gusting 4 29.4
2014-Dec-21 07:46 004 1 gusting 4 30.0
2014-Dec-21 07:36 017 1 gusting 4 30.0
2014-Dec-21 07:26 019 1 gusting 7 30.0
2014-Dec-21 07:03 321 0 gusting 3 30.0
2014-Dec-21 06:53 336 1 gusting 7 30.6
2014-Dec-21 06:43 031 1 gusting 7 31.7
2014-Dec-21 06:33 005 0 gusting 6 31.1
2014-Dec-21 06:18 026 2 gusting 5 31.1
2014-Dec-21 06:07 036 2 gusting 5 32.2
2014-Dec-21 05:57 041 1 gusting 6 32.8
2014-Dec-21 05:47 348 2 gusting 6 32.8
2014-Dec-21 05:37 346 2 gusting 6 32.2
2014-Dec-21 05:27 011 1 gusting 6 32.8
2014-Dec-21 05:16 044 3 gusting 5 32.8
2014-Dec-21 05:06 095 2 gusting 5 32.2
2014-Dec-21 04:56 346 1 gusting 8 33.3
2014-Dec-21 04:46 019 2 gusting 8 33.3
2014-Dec-21 04:35 054 4 gusting 10 33.3
2014-Dec-21 04:23 124 3 gusting 10 32.8
2014-Dec-21 04:13 346 1 gusting 7 32.2
2014-Dec-21 04:03 004 3 gusting 9 32.8
2014-Dec-21 03:53 030 2 gusting 9 33.9
2014-Dec-21 03:43 103 1 gusting 6 33.9
2014-Dec-21 03:22 038 0 gusting 8 32.8
2014-Dec-21 03:12 034 3 gusting 8 32.2
2014-Dec-21 03:02 102 0 gusting 11 32.2
2014-Dec-21 02:51 029 2 gusting 11 32.2
2014-Dec-21 02:40 069 4 gusting 10 31.7
2014-Dec-21 02:29 069 5 gusting 10 31.7
2014-Dec-21 02:17 007 4 gusting 10 31.7
2014-Dec-21 02:07 039 3 gusting 10 31.1
2014-Dec-21 01:57 347 2 gusting 8 31.1
2014-Dec-21 01:47 059 1 gusting 8 31.1
2014-Dec-21 01:37 081 3 gusting 9 31.1
2014-Dec-21 01:26 066 4 gusting 9 30.6
2014-Dec-21 01:16 103 3 gusting 9 30.0
2014-Dec-21 01:06 074 1 gusting 13 30.0
2014-Dec-21 00:56 045 1 gusting 13 30.0
2014-Dec-21 00:44 029 2 gusting 8 29.4
2014-Dec-21 00:33 129 1 gusting 4 29.4
2014-Dec-21 00:11 129 1 gusting 9 28.3
2014-Dec-21 00:01 115 1 gusting 4 27.8
2014-Dec-20 23:49 154 1 gusting 3 27.8
2014-Dec-20 23:39 092 0 gusting 2 27.2
2014-Dec-20 23:29 091 1 gusting 6 25.6
2014-Dec-20 23:19 099 1 gusting 6 25.6
2014-Dec-20 23:08 098 0 gusting 3 25.6
2014-Dec-20 22:57 116 0 gusting 3 25.6
2014-Dec-20 22:47 051 25.6
2014-Dec-20 22:37 051 25.6
2014-Dec-20 22:27 051 25.6
2014-Dec-20 22:16 044 25.6
2014-Dec-20 22:05 126 0 gusting 1 25.6
2014-Dec-20 21:55 127 0 gusting 1 25.6
2014-Dec-20 21:45 127 25.6
2014-Dec-20 21:35 127 0 gusting 2 25.6
2014-Dec-20 21:24 127 25.6
2014-Dec-20 21:14 048 1 gusting 3 25.6
2014-Dec-20 21:03 110 1 gusting 4 25.6
2014-Dec-20 20:51 027 2 gusting 4 25.6
2014-Dec-20 20:41 067 0 gusting 2 25.6
2014-Dec-20 20:20 029 25.6
2014-Dec-20 20:10 030 0 gusting 4 25.6
2014-Dec-20 20:00 100 0 gusting 5 25.6
2014-Dec-20 19:49 082 1 gusting 5 26.1
2014-Dec-20 19:38 079 0 gusting 4 25.6
2014-Dec-20 19:28 102 1 gusting 2 25.6
2014-Dec-20 19:18 101 25.6
2014-Dec-20 19:08 101 0 gusting 4 25.6
2014-Dec-20 18:58 087 1 gusting 4 25.6
2014-Dec-20 18:48 057 0 gusting 1 25.6
2014-Dec-20 18:38 057 25.6
2014-Dec-20 18:28 057 25.6
2014-Dec-20 18:18 057 0 gusting 1 25.6
2014-Dec-20 18:08 057 25.6
2014-Dec-20 17:56 057 25.6
2014-Dec-20 17:46 057 25.6
2014-Dec-20 17:35 057 0 gusting 0 25.6
2014-Dec-20 17:24 057 25.6
2014-Dec-20 17:14 057 0 gusting 2 26.1
2014-Dec-20 17:02 057 0 gusting 2 26.1
2014-Dec-20 16:52 062 1 gusting 6 26.1
2014-Dec-20 16:36 076 1 gusting 6 26.1
2014-Dec-20 16:26 083 2 gusting 6 26.1
2014-Dec-20 16:15 073 2 gusting 4 26.1
2014-Dec-20 16:05 053 0 gusting 1 26.1
2014-Dec-20 15:55 053 0 gusting 2 26.1
2014-Dec-20 15:45 053 0 gusting 6 26.1
2014-Dec-20 15:35 062 1 gusting 6 26.1
2014-Dec-20 15:25 073 2 gusting 6 26.1
2014-Dec-20 15:15 076 0 gusting 6 26.1
2014-Dec-20 15:05 103 1 gusting 1 26.1
2014-Dec-20 14:55 102 26.1
2014-Dec-20 14:45 102 0 gusting 3 26.1
2014-Dec-20 14:35 050 26.1
2014-Dec-20 14:25 091 1 gusting 6 26.1
2014-Dec-20 14:15 073 1 gusting 6 26.1
2014-Dec-20 14:04 104 1 gusting 6 26.7